Miscellaneous Local Product
Issued by NWS Hastings, NE

Home | Current Version | Previous Version | Text Only | Print | Product List | Glossary Off
Versions: 1 2 3 4 5 6 7 8 9 10 11 12 13 14 15 16 17 18 19 20 21 22 23 24 25 26 27 28 29 30 31 32 33 34 35 36 37 38 39 40 41 42 43 44 45 46 47 48 49 50

000
AXUS43 KGID 291802
MISGRI

GID CWA HOURLY WEATHER ROUNDUP
NATIONAL WEATHER SERVICE HASTINGS NE
100 PM CDT MON SEP 29 2014

NOTE: "FAIR" INDICATES FEW OR NO CLOUDS BELOW 12,000 FEET WITH NO
SIGNIFICANT WEATHER AND/OR OBSTRUCTIONS TO VISIBILITY.

...SOUTH CENTRAL NEBRASKA...

CITY           SKY/WX    TMP DP  RH WIND       PRES   REMARKS
GRAND ISLAND   SUNNY     82  57  42 S12G20    30.03F
HASTINGS       SUNNY     80  52  37 S10G20    30.03F
KEARNEY        MOSUNNY   81  57  44 SE16      30.03F
ORD            SUNNY     80  57  45 S12G21    30.01F
YORK           SUNNY     81  57  44 S7        30.04F
AURORA         SUNNY     81  51  34 S10       30.04F
LEXINGTON      SUNNY     80  57  45 SE23      30.01F
HOLDREGE       SUNNY     79  55  43 S14       30.02F
HEBRON         SUNNY     82  50  32 S8        30.04F

...NEBRASKA PANHANDLE...

CITY           SKY/WX    TMP DP  RH WIND       PRES   REMARKS
CHADRON        CLOUDY    54  53  97 NE10      30.00F
ALLIANCE       LGT RAIN  58  57  97 E12       29.99F FOG
SCOTTSBLUFF    CLOUDY    61  57  87 SW3       30.00F
SIDNEY         CLOUDY    64  56  75 E7        30.00F

...WESTERN AND NORTH CENTRAL NEBRASKA...

CITY           SKY/WX    TMP DP  RH WIND       PRES   REMARKS
VALENTINE      CLOUDY    62  56  80 SE9       30.05S
AINSWORTH      MOSUNNY   64  58  81 E13       30.03F
ONEILL         SUNNY     71  62  73 E6        30.05F
BROKEN BOW     SUNNY     81  58  45 S16G25    30.01F
IMPERIAL       CLOUDY    76  55  48 SE21G30   29.96F
NORTH PLATTE   PTSUNNY   81  53  37 S16G29    29.98F
MCCOOK         MOSUNNY   82  52  35 SE21G31   29.98F

...EASTERN NEBRASKA...

CITY           SKY/WX    TMP DP  RH WIND       PRES   REMARKS
NORFOLK        SUNNY     79  57  46 SE5       30.04F
SO SIOUX CITY  MOSUNNY   78  65  63 CALM      30.04F
COLUMBUS       SUNNY     79  57  47 S3        30.06F
ALBION         SUNNY     78  57  47 SE8       30.04F
OMAHA EPPLEY   MOSUNNY   78  57  48 S3        30.05F
OFFUTT AFB     SUNNY     80  61  52 VRB1      30.05F
MILLARD        SUNNY     79  61  52 SE3       30.05F
LINCOLN        SUNNY     79  61  53 CALM      30.06F
NEBRASKA CITY  SUNNY     79  55  43 CALM      30.05F
BEATRICE       SUNNY     81  58  45 SW6       30.04F
FALLS CITY     MOSUNNY   82  58  43 S3        30.05F

...NORTHERN KANSAS...

CITY           SKY/WX    TMP DP  RH WIND       PRES   REMARKS
GOODLAND       MOSUNNY   79  56  45 S28G37    29.97F
HILL CITY      SUNNY     83  53  35 S20G29    30.00F
NORTON         CLEAR     81  46  30 SE17G24   29.99
PHILLIPSBURG   SUNNY     82  54  36 S12G20    30.01F
SMITH CENTER   SUNNY     82  54  36 S13G21    30.03F
BELOIT         SUNNY     84  54  34 SE12      30.01F
HAYS           SUNNY     81  57  44 S16G22    30.02F
RUSSELL        SUNNY     81  60  48 S13       30.02F
CONCORDIA      SUNNY     81  60  48 S10       30.04F
SALINA         SUNNY     83  61  47 S9        30.04F
TOPEKA         SUNNY     83  62  49 VRB7      30.05F



USA.gov is the U.S. government's official web portal to all federal, state and local government web resources and services.